Time,TemperatureF,DewpointF,PressureIn,WindDirection,WindDirectionDegrees,WindSpeedMPH,WindSpeedGustMPH,Humidity,HourlyPrecipIn,Conditions,Clouds,dailyrainin,SolarRadiationWatts/m^2,SoftwareType,DateUTC
2013-11-18 00:01:00,29.0,25.0,-100.00,West,263,3.0,10.0,84,0.00,,,0.07,0.000000,,2013-11-18 07:01:00,
2013-11-18 00:11:00,29.0,25.0,-100.00,West,263,3.0,10.0,84,0.00,,,0.07,0.000000,,2013-11-18 07:11:00,
2013-11-18 00:42:00,27.0,23.0,-100.00,WNW,296,3.0,6.0,84,0.00,,,0.07,0.000000,,2013-11-18 07:42:00,
2013-11-18 00:52:00,27.0,23.0,-100.00,WNW,296,3.0,6.0,84,0.00,,,0.07,0.000000,,2013-11-18 07:52:00,
2013-11-18 01:01:00,27.0,23.0,-100.00,WNW,296,3.0,6.0,84,0.00,,,0.07,0.000000,,2013-11-18 08:01:00,
2013-11-18 01:11:00,27.0,23.0,-100.00,WNW,296,3.0,6.0,84,0.00,,,0.07,0.000000,,2013-11-18 08:11:00,
2013-11-18 01:42:00,29.0,23.0,-100.00,WSW,256,5.0,14.0,77,0.00,,,0.07,0.000000,,2013-11-18 08:42:00,
2013-11-18 01:52:00,29.0,23.0,-100.00,WSW,256,5.0,14.0,77,0.00,,,0.07,0.000000,,2013-11-18 08:52:00,
2013-11-18 02:02:00,29.0,23.0,-100.00,WSW,256,5.0,14.0,77,0.00,,,0.07,0.000000,,2013-11-18 09:02:00,
2013-11-18 02:12:00,29.0,23.0,-100.00,WSW,256,5.0,14.0,77,0.00,,,0.07,0.000000,,2013-11-18 09:12:00,
2013-11-18 02:43:00,25.0,21.0,-100.00,WNW,296,4.0,7.0,84,0.00,,,0.07,0.000000,,2013-11-18 09:43:00,
2013-11-18 02:53:00,25.0,21.0,-100.00,WNW,296,4.0,7.0,84,0.00,,,0.07,0.000000,,2013-11-18 09:53:00,
2013-11-18 03:03:00,25.0,21.0,-100.00,WNW,296,4.0,7.0,84,0.00,,,0.07,0.000000,,2013-11-18 10:03:00,
2013-11-18 03:13:00,25.0,21.0,-100.00,WNW,296,4.0,7.0,84,0.00,,,0.07,0.000000,,2013-11-18 10:13:00,
2013-11-18 03:43:00,25.0,20.0,-100.00,WNW,290,4.0,9.0,82,0.00,,,0.07,0.000000,,2013-11-18 10:43:00,
2013-11-18 03:53:00,25.0,20.0,-100.00,WNW,290,4.0,9.0,82,0.00,,,0.07,0.000000,,2013-11-18 10:53:00,
2013-11-18 04:02:00,25.0,20.0,-100.00,WNW,290,4.0,9.0,82,0.00,,,0.07,0.000000,,2013-11-18 11:02:00,
2013-11-18 04:12:00,25.0,20.0,-100.00,WNW,290,4.0,9.0,82,0.00,,,0.07,0.000000,,2013-11-18 11:12:00,
2013-11-18 04:42:00,23.0,20.0,-100.00,NW,312,3.0,7.0,87,0.00,,,0.07,0.000000,,2013-11-18 11:42:00,
2013-11-18 04:52:00,23.0,20.0,-100.00,NW,312,3.0,7.0,87,0.00,,,0.07,0.000000,,2013-11-18 11:52:00,
2013-11-18 05:02:00,23.0,20.0,-100.00,NW,312,3.0,7.0,87,0.00,,,0.07,0.000000,,2013-11-18 12:02:00,
2013-11-18 05:12:00,23.0,20.0,-100.00,NW,312,3.0,7.0,87,0.00,,,0.07,0.000000,,2013-11-18 12:12:00,
2013-11-18 05:42:00,22.0,18.0,-100.00,WNW,301,3.0,7.0,86,0.00,,,0.05,0.000000,,2013-11-18 12:42:00,
2013-11-18 05:52:00,22.0,18.0,-100.00,WNW,301,3.0,7.0,86,0.00,,,0.05,0.000000,,2013-11-18 12:52:00,
2013-11-18 06:01:00,22.0,18.0,-100.00,WNW,301,3.0,7.0,86,0.00,,,0.05,0.000000,,2013-11-18 13:01:00,
2013-11-18 06:11:00,22.0,18.0,-100.00,WNW,301,3.0,7.0,86,0.00,,,0.05,0.000000,,2013-11-18 13:11:00,
2013-11-18 06:42:00,22.0,18.0,-100.00,NW,304,2.0,6.0,86,0.00,,,0.04,0.000000,,2013-11-18 13:42:00,
2013-11-18 06:52:00,22.0,18.0,-100.00,NW,304,2.0,6.0,86,0.00,,,0.04,0.000000,,2013-11-18 13:52:00,
2013-11-18 07:02:00,22.0,18.0,-100.00,NW,304,2.0,6.0,86,0.00,,,0.04,0.000000,,2013-11-18 14:02:00,
2013-11-18 07:11:00,22.0,18.0,-100.00,NW,304,2.0,6.0,86,0.00,,,0.04,0.000000,,2013-11-18 14:11:00,
2013-11-18 07:42:00,21.0,18.0,-100.00,WNW,303,3.0,5.0,88,0.00,,,0.03,0.000000,,2013-11-18 14:42:00,
2013-11-18 07:52:00,21.0,18.0,-100.00,WNW,303,3.0,5.0,88,0.00,,,0.03,0.000000,,2013-11-18 14:52:00,
2013-11-18 08:01:00,21.0,18.0,-100.00,WNW,303,3.0,5.0,88,0.00,,,0.03,0.000000,,2013-11-18 15:01:00,
2013-11-18 08:11:00,21.0,18.0,-100.00,WNW,303,3.0,5.0,88,0.00,,,0.03,0.000000,,2013-11-18 15:11:00,
2013-11-18 08:43:00,21.0,17.0,-100.00,WNW,299,3.0,7.0,86,0.00,,,0.03,0.000000,,2013-11-18 15:43:00,
2013-11-18 08:54:00,21.0,17.0,-100.00,WNW,299,3.0,7.0,86,0.00,,,0.03,0.000000,,2013-11-18 15:54:00,
2013-11-18 09:03:00,21.0,17.0,-100.00,WNW,299,3.0,7.0,86,0.00,,,0.03,0.000000,,2013-11-18 16:03:00,
2013-11-18 09:12:00,21.0,17.0,-100.00,WNW,299,3.0,7.0,86,0.00,,,0.03,0.000000,,2013-11-18 16:12:00,
2013-11-18 09:43:00,22.0,18.0,-100.00,NW,306,3.0,7.0,85,0.00,,,0.02,9.000000,,2013-11-18 16:43:00,
2013-11-18 09:52:00,22.0,18.0,-100.00,NW,306,3.0,7.0,85,0.00,,,0.02,9.000000,,2013-11-18 16:52:00,
2013-11-18 10:02:00,22.0,18.0,-100.00,NW,306,3.0,7.0,85,0.00,,,0.02,9.000000,,2013-11-18 17:02:00,
2013-11-18 10:12:00,22.0,18.0,-100.00,NW,306,3.0,7.0,85,0.00,,,0.02,9.000000,,2013-11-18 17:12:00,
2013-11-18 10:43:00,24.0,18.0,-100.00,West,262,4.0,7.0,77,0.00,,,0.02,33.000000,,2013-11-18 17:43:00,
2013-11-18 11:42:00,31.0,21.0,-100.00,SW,218,3.0,10.0,66,-99.99,,,-99.99,128.000000,,2013-11-18 18:42:00,
2013-11-18 11:52:00,31.0,21.0,-100.00,SW,218,3.0,10.0,66,-99.99,,,-99.99,128.000000,,2013-11-18 18:52:00,
2013-11-18 12:01:00,31.0,21.0,-100.00,SW,218,3.0,10.0,66,-99.99,,,-99.99,128.000000,,2013-11-18 19:01:00,
2013-11-18 12:11:00,31.0,21.0,-100.00,SW,218,3.0,10.0,66,-99.99,,,-99.99,128.000000,,2013-11-18 19:11:00,
2013-11-18 12:42:00,36.0,23.0,-100.00,West,262,2.0,7.0,60,0.00,,,0.02,241.000000,,2013-11-18 19:42:00,
2013-11-18 12:52:00,36.0,23.0,-100.00,West,262,2.0,7.0,60,0.00,,,0.02,241.000000,,2013-11-18 19:52:00,
2013-11-18 13:01:00,36.0,23.0,-100.00,West,262,2.0,7.0,60,0.00,,,0.02,241.000000,,2013-11-18 20:01:00,
2013-11-18 13:11:00,36.0,23.0,-100.00,West,262,2.0,7.0,60,0.00,,,0.02,241.000000,,2013-11-18 20:11:00,
2013-11-18 13:42:00,39.0,25.0,-100.00,WSW,237,2.0,7.0,58,0.00,,,0.00,238.000000,,2013-11-18 20:42:00,
2013-11-18 13:52:00,39.0,25.0,-100.00,WSW,237,2.0,7.0,58,0.00,,,0.00,238.000000,,2013-11-18 20:52:00,
2013-11-18 14:02:00,39.0,25.0,-100.00,WSW,237,2.0,7.0,58,0.00,,,0.00,238.000000,,2013-11-18 21:02:00,
2013-11-18 14:11:00,39.0,25.0,-100.00,WSW,237,2.0,7.0,58,0.00,,,0.00,238.000000,,2013-11-18 21:11:00,
2013-11-18 14:43:00,40.0,28.0,-100.00,WNW,299,2.0,4.0,63,0.00,,,0.00,203.000000,,2013-11-18 21:43:00,
2013-11-18 14:54:00,40.0,28.0,-100.00,WNW,299,2.0,4.0,63,0.00,,,0.00,203.000000,,2013-11-18 21:54:00,
2013-11-18 15:03:00,40.0,28.0,-100.00,WNW,299,2.0,4.0,63,0.00,,,0.00,203.000000,,2013-11-18 22:03:00,
2013-11-18 15:12:00,40.0,28.0,-100.00,WNW,299,2.0,4.0,63,0.00,,,0.00,203.000000,,2013-11-18 22:12:00,
2013-11-18 15:43:00,41.0,29.0,-100.00,WSW,239,3.0,7.0,62,0.00,,,0.00,184.000000,,2013-11-18 22:43:00,
2013-11-18 15:52:00,41.0,29.0,-100.00,WSW,239,3.0,7.0,62,0.00,,,0.00,184.000000,,2013-11-18 22:52:00,
2013-11-18 16:02:00,41.0,29.0,-100.00,WSW,239,3.0,7.0,62,0.00,,,0.00,184.000000,,2013-11-18 23:02:00,
2013-11-18 16:12:00,41.0,29.0,-100.00,WSW,239,3.0,7.0,62,0.00,,,0.00,184.000000,,2013-11-18 23:12:00,
2013-11-18 18:42:00,34.0,32.0,-100.00,WNW,292,3.0,6.0,94,0.00,,,0.00,11.000000,,2013-11-19 01:42:00,
2013-11-18 18:52:00,34.0,32.0,-100.00,WNW,292,3.0,6.0,94,0.00,,,0.00,11.000000,,2013-11-19 01:52:00,
2013-11-18 19:01:00,34.0,32.0,-100.00,WNW,292,3.0,6.0,94,0.00,,,0.00,11.000000,,2013-11-19 02:01:00,
2013-11-18 19:11:00,34.0,32.0,-100.00,WNW,292,3.0,6.0,94,0.00,,,0.00,11.000000,,2013-11-19 02:11:00,
2013-11-18 19:42:00,34.0,31.0,-100.00,SW,222,3.0,8.0,90,0.00,,,0.00,0.000000,,2013-11-19 02:42:00,
2013-11-18 19:52:00,34.0,31.0,-100.00,SW,222,3.0,8.0,90,0.00,,,0.00,0.000000,,2013-11-19 02:52:00,
2013-11-18 20:02:00,34.0,31.0,-100.00,SW,222,3.0,8.0,90,0.00,,,0.00,0.000000,,2013-11-19 03:02:00,
2013-11-18 20:11:00,34.0,31.0,-100.00,SW,222,3.0,8.0,90,0.00,,,0.00,0.000000,,2013-11-19 03:11:00,
2013-11-18 20:43:00,33.0,32.0,-100.00,NW,309,2.0,6.0,95,0.00,,,0.00,0.000000,,2013-11-19 03:43:00,
2013-11-18 20:54:00,33.0,32.0,-100.00,NW,309,2.0,6.0,95,0.00,,,0.00,0.000000,,2013-11-19 03:54:00,
2013-11-18 21:12:00,33.0,32.0,-100.00,NW,309,2.0,6.0,95,0.00,,,0.00,0.000000,,2013-11-19 04:12:00,
2013-11-18 21:42:00,33.0,31.0,-100.00,WNW,296,3.0,7.0,92,0.00,,,0.00,0.000000,,2013-11-19 04:42:00,
2013-11-18 21:52:00,33.0,31.0,-100.00,WNW,296,3.0,7.0,92,0.00,,,0.00,0.000000,,2013-11-19 04:52:00,
2013-11-18 22:02:00,33.0,31.0,-100.00,WNW,296,3.0,7.0,92,0.00,,,0.00,0.000000,,2013-11-19 05:02:00,
2013-11-18 22:12:00,33.0,31.0,-100.00,WNW,296,3.0,7.0,92,0.00,,,0.00,0.000000,,2013-11-19 05:12:00,
2013-11-18 22:43:00,33.0,31.0,-100.00,NW,325,2.0,6.0,93,0.00,,,0.00,0.000000,,2013-11-19 05:43:00,
2013-11-18 22:53:00,33.0,31.0,-100.00,NW,325,2.0,6.0,93,0.00,,,0.00,0.000000,,2013-11-19 05:53:00,
2013-11-18 23:02:00,33.0,31.0,-100.00,NW,325,2.0,6.0,93,0.00,,,0.00,0.000000,,2013-11-19 06:02:00,
2013-11-18 23:12:00,33.0,31.0,-100.00,NW,325,2.0,6.0,93,0.00,,,0.00,0.000000,,2013-11-19 06:12:00,
2013-11-18 23:42:00,33.0,31.0,-100.00,NW,318,3.0,5.0,93,0.00,,,0.00,0.000000,,2013-11-19 06:42:00,
2013-11-18 23:52:00,33.0,31.0,-100.00,NW,318,3.0,5.0,93,0.00,,,0.00,0.000000,,2013-11-19 06:52:00,